AFL3412 UWLL-UGTB

Flight info

Callsign AFL3412
Flight time N/A
Altitude 38000
Route NEPNI1L NEPNI T789 DAFOS P135 UROBO R807 NIRGA A835 GUSLI/N0454F390 M54 LAGAS
Aircraft B738/M-SDE2E3FGHIRWXY/LB1

Departure

Time 2026-04-30 19:51
Airport Ulyanovsk Baratayevka Airport (UWLL)

Arrival

Time N/A
Airport Tbilisi International Airport (UGTB)
Time Latitude Longitude Altitude Speed Heading
2026-04-30 19:17 54.28569 48.23369 373 ft 0 kts 124°
2026-04-30 19:31 54.28569 48.23370 373 ft 1 kts 124°
2026-04-30 19:31 54.28556 48.23397 373 ft 6 kts 137°
2026-04-30 19:31 54.28537 48.23416 373 ft 3 kts 160°
2026-04-30 19:32 54.28523 48.23417 373 ft 0 kts 194°
2026-04-30 19:32 54.28517 48.23412 374 ft 6 kts 207°
2026-04-30 19:32 54.28450 48.23472 376 ft 19 kts 123°
2026-04-30 19:32 54.28410 48.23578 380 ft 7 kts 123°
2026-04-30 19:33 54.28402 48.23599 381 ft 2 kts 123°
2026-04-30 19:33 54.28385 48.23643 382 ft 6 kts 123°
2026-04-30 19:33 54.28351 48.23732 384 ft 11 kts 123°
2026-04-30 19:33 54.28310 48.23842 386 ft 11 kts 123°
2026-04-30 19:34 54.28252 48.24002 385 ft 21 kts 122°
2026-04-30 19:34 54.28159 48.24192 385 ft 21 kts 168°
2026-04-30 19:34 54.27967 48.24016 395 ft 14 kts 213°
2026-04-30 19:35 54.27885 48.23926 394 ft 14 kts 212°
2026-04-30 19:35 54.27804 48.23840 398 ft 15 kts 211°
2026-04-30 19:35 54.27702 48.23733 398 ft 19 kts 212°
2026-04-30 19:35 54.27578 48.23600 404 ft 22 kts 211°
2026-04-30 19:36 54.27452 48.23468 413 ft 21 kts 211°
2026-04-30 19:36 54.27331 48.23337 420 ft 20 kts 214°
2026-04-30 19:36 54.27057 48.23038 427 ft 25 kts 212°
2026-04-30 19:37 54.26912 48.22882 427 ft 25 kts 212°
2026-04-30 19:37 54.26772 48.22733 433 ft 23 kts 212°
2026-04-30 19:37 54.26631 48.22581 429 ft 26 kts 212°
2026-04-30 19:37 54.26482 48.22420 439 ft 24 kts 212°
2026-04-30 19:38 54.26401 48.22330 441 ft 13 kts 218°
2026-04-30 19:38 54.26373 48.22224 443 ft 0 kts 270°
2026-04-30 19:41 54.26373 48.22222 443 ft 2 kts 272°
2026-04-30 19:41 54.26373 48.22216 430 ft 0 kts 272°
2026-04-30 19:45 54.26375 48.22157 433 ft 10 kts 272°
2026-04-30 19:45 54.26375 48.22150 438 ft 0 kts 272°
2026-04-30 19:48 54.26376 48.22105 435 ft 13 kts 274°
2026-04-30 19:49 54.26429 48.21943 438 ft 18 kts 350°
2026-04-30 19:49 54.26457 48.21956 443 ft 0 kts 31°
2026-04-30 19:50 54.26458 48.21958 443 ft 3 kts 31°
2026-04-30 19:50 54.26637 48.22146 424 ft 72 kts 32°
2026-04-30 19:50 54.27306 48.22860 419 ft 152 kts 31°
2026-04-30 19:51 54.28298 48.23919 968 ft 172 kts 32°
2026-04-30 19:51 54.29274 48.24992 2183 ft 164 kts 31°
2026-04-30 19:51 54.30304 48.26110 2749 ft 191 kts 32°
2026-04-30 19:51 54.31436 48.27338 3523 ft 191 kts 31°
2026-04-30 19:52 54.32675 48.28456 3937 ft 212 kts 18°
2026-04-30 19:52 54.34224 48.28459 4155 ft 240 kts 339°
2026-04-30 19:52 54.35492 48.26609 4836 ft 246 kts 301°
2026-04-30 19:52 54.35976 48.23813 5555 ft 249 kts 270°
2026-04-30 19:53 54.35562 48.20973 6295 ft 249 kts 237°
2026-04-30 19:53 54.34293 48.19015 6982 ft 249 kts 205°
2026-04-30 19:53 54.32678 48.17903 7666 ft 251 kts 200°
2026-04-30 19:53 54.31025 48.16883 8334 ft 254 kts 199°
2026-04-30 19:54 54.29356 48.15853 8976 ft 256 kts 200°
2026-04-30 19:54 54.27682 48.14800 9658 ft 257 kts 200°
2026-04-30 19:54 54.26010 48.13729 10361 ft 256 kts 201°
2026-04-30 19:54 54.24321 48.12634 10898 ft 268 kts 201°
2026-04-30 19:55 54.22494 48.11437 11134 ft 293 kts 201°
2026-04-30 19:55 54.20511 48.10130 11331 ft 318 kts 201°
2026-04-30 19:55 54.18375 48.08720 11526 ft 341 kts 201°
2026-04-30 19:55 54.16119 48.07227 11971 ft 353 kts 201°
2026-04-30 19:56 54.13820 48.05706 12705 ft 355 kts 201°
2026-04-30 19:56 54.11515 48.04179 13536 ft 355 kts 201°
2026-04-30 19:56 54.09208 48.02656 14315 ft 356 kts 201°
2026-04-30 19:56 54.06924 48.01155 15052 ft 357 kts 200°
2026-04-30 19:57 54.04554 47.99860 15753 ft 359 kts 196°
2026-04-30 19:57 54.02135 47.98767 16443 ft 360 kts 194°
2026-04-30 19:57 53.99704 47.97723 17164 ft 361 kts 194°
2026-04-30 19:57 53.97263 47.96670 17802 ft 363 kts 194°
2026-04-30 19:58 53.94809 47.95595 18438 ft 365 kts 195°
2026-04-30 19:58 53.92354 47.94499 19061 ft 367 kts 195°
2026-04-30 19:58 53.89884 47.93385 19629 ft 369 kts 195°
2026-04-30 19:58 53.87390 47.92254 20186 ft 371 kts 196°
2026-04-30 19:59 53.84890 47.91120 20707 ft 374 kts 196°
2026-04-30 19:59 53.82367 47.89975 21231 ft 376 kts 196°
2026-04-30 19:59 53.77287 47.87673 22243 ft 380 kts 196°
2026-04-30 20:00 53.74721 47.86513 22719 ft 382 kts 197°
2026-04-30 20:00 53.72149 47.85352 23193 ft 384 kts 197°
2026-04-30 20:00 53.69562 47.84154 23633 ft 386 kts 199°
2026-04-30 20:00 53.67031 47.82632 24086 ft 387 kts 202°
2026-04-30 20:01 53.62026 47.79162 24874 ft 391 kts 203°
2026-04-30 20:01 53.59497 47.77417 25232 ft 394 kts 203°
2026-04-30 20:01 53.56943 47.75692 25591 ft 397 kts 202°
2026-04-30 20:02 53.51775 47.72265 26280 ft 401 kts 202°
2026-04-30 20:02 53.49168 47.70546 26607 ft 404 kts 202°
2026-04-30 20:03 53.44107 47.66485 27152 ft 408 kts 208°
2026-04-30 20:03 53.41610 47.64185 27414 ft 411 kts 208°
2026-04-30 20:03 53.39067 47.61830 27679 ft 414 kts 208°
2026-04-30 20:03 53.36568 47.59535 27966 ft 415 kts 208°
2026-04-30 20:04 53.34024 47.57220 28290 ft 416 kts 208°
2026-04-30 20:04 53.31479 47.54923 28635 ft 416 kts 207°
2026-04-30 20:04 53.28929 47.52633 29007 ft 415 kts 207°
2026-04-30 20:05 53.23822 47.48061 29658 ft 416 kts 207°
2026-04-30 20:05 53.21265 47.45775 29992 ft 416 kts 207°
2026-04-30 20:05 53.16144 47.41210 30427 ft 422 kts 207°
2026-04-30 20:06 53.13541 47.38895 30533 ft 426 kts 207°
2026-04-30 20:06 53.10950 47.36592 30676 ft 428 kts 207°
2026-04-30 20:06 53.08320 47.34259 30928 ft 428 kts 207°
2026-04-30 20:06 53.05660 47.31901 31148 ft 429 kts 207°
2026-04-30 20:07 53.03020 47.29565 31306 ft 430 kts 207°
2026-04-30 20:07 53.00414 47.27262 31528 ft 430 kts 207°
2026-04-30 20:07 52.95121 47.22590 31927 ft 432 kts 207°
2026-04-30 20:08 52.92458 47.20244 32115 ft 433 kts 207°
2026-04-30 20:08 52.89797 47.17903 32332 ft 433 kts 207°
2026-04-30 20:08 52.87133 47.15563 32552 ft 433 kts 208°
2026-04-30 20:08 52.84462 47.13221 32656 ft 436 kts 207°
2026-04-30 20:09 52.81787 47.10878 32955 ft 433 kts 207°
2026-04-30 20:09 52.79126 47.08554 33314 ft 431 kts 207°
2026-04-30 20:09 52.73843 47.03952 33924 ft 429 kts 207°
2026-04-30 20:10 52.68545 46.99346 34322 ft 431 kts 207°
2026-04-30 20:10 52.65888 46.97036 34598 ft 431 kts 207°
2026-04-30 20:10 52.63237 46.94737 34832 ft 431 kts 207°
2026-04-30 20:11 52.57908 46.90131 35205 ft 434 kts 207°
2026-04-30 20:11 52.55240 46.87828 35444 ft 433 kts 207°
2026-04-30 20:11 52.52574 46.85531 35710 ft 432 kts 207°
2026-04-30 20:12 52.47231 46.80939 36022 ft 435 kts 207°
2026-04-30 20:12 52.44545 46.78637 36055 ft 436 kts 207°
2026-04-30 20:13 52.39162 46.74023 36070 ft 437 kts 207°
2026-04-30 20:13 52.36466 46.71721 36212 ft 438 kts 207°
2026-04-30 20:13 52.33799 46.69446 36491 ft 436 kts 207°
2026-04-30 20:13 52.31114 46.67154 36726 ft 435 kts 207°
2026-04-30 20:14 52.28433 46.64869 36910 ft 435 kts 207°
2026-04-30 20:14 52.25758 46.62594 37204 ft 432 kts 207°
2026-04-30 20:14 52.23104 46.60340 37532 ft 428 kts 208°
2026-04-30 20:14 52.20461 46.58097 37721 ft 429 kts 208°
2026-04-30 20:15 52.18665 46.56576 37753 ft 431 kts 207°
2026-04-30 20:15 52.13328 46.52068 38016 ft 432 kts 207°
2026-04-30 20:16 52.08007 46.47584 38054 ft 435 kts 208°
2026-04-30 20:16 52.02647 46.43074 38053 ft 432 kts 207°
2026-04-30 20:17 51.97322 46.38617 38049 ft 430 kts 208°
2026-04-30 20:17 51.92015 46.34184 38046 ft 428 kts 208°
2026-04-30 20:18 51.86727 46.29774 38047 ft 427 kts 208°
2026-04-30 20:18 51.81433 46.25371 38047 ft 428 kts 207°
2026-04-30 20:19 51.76130 46.20976 38046 ft 429 kts 208°
2026-04-30 20:19 51.70790 46.16561 38056 ft 434 kts 207°
2026-04-30 20:20 51.65379 46.12108 38086 ft 439 kts 207°
2026-04-30 20:20 51.59913 46.07602 38057 ft 443 kts 207°
2026-04-30 20:21 51.54400 46.03108 38047 ft 445 kts 206°
2026-04-30 20:21 51.48832 45.98852 38043 ft 446 kts 206°
2026-04-30 20:22 51.43210 45.94626 38046 ft 446 kts 206°
2026-04-30 20:22 51.37595 45.90382 38051 ft 446 kts 206°
2026-04-30 20:23 51.31991 45.86127 38057 ft 446 kts 206°
2026-04-30 20:23 51.26376 45.81880 38054 ft 445 kts 206°
2026-04-30 20:24 51.20812 45.77692 38055 ft 445 kts 206°
2026-04-30 20:24 51.15222 45.73493 38057 ft 444 kts 206°
2026-04-30 20:25 51.06848 45.67217 38059 ft 443 kts 206°
2026-04-30 20:26 50.98124 45.62481 38075 ft 444 kts 194°
2026-04-30 20:26 50.89058 45.59371 38065 ft 444 kts 195°
2026-04-30 20:27 50.77023 45.55070 38084 ft 443 kts 195°
2026-04-30 20:28 50.64988 45.50878 38095 ft 441 kts 195°
2026-04-30 20:30 50.50211 45.45763 38089 ft 438 kts 195°
2026-04-30 20:31 50.32134 45.39538 38095 ft 447 kts 195°
2026-04-30 20:32 50.16925 45.34340 38103 ft 447 kts 195°
2026-04-30 20:33 50.07822 45.31245 38106 ft 445 kts 195°
2026-04-30 20:34 49.98781 45.28004 38114 ft 443 kts 198°
2026-04-30 20:35 49.89958 45.24022 38112 ft 441 kts 199°
2026-04-30 20:35 49.81130 45.20094 38126 ft 439 kts 199°
2026-04-30 20:36 49.75256 45.17524 38141 ft 439 kts 199°
2026-04-30 20:37 49.66443 45.13677 38144 ft 438 kts 199°
2026-04-30 20:37 49.60578 45.11132 38133 ft 438 kts 199°
2026-04-30 20:38 49.54708 45.08602 38158 ft 438 kts 199°
2026-04-30 20:38 49.48838 45.06076 38147 ft 438 kts 199°
2026-04-30 20:39 49.40053 45.02254 38155 ft 438 kts 199°
2026-04-30 20:40 49.31230 44.98522 38141 ft 439 kts 199°
2026-04-30 20:40 49.25356 44.96021 38157 ft 438 kts 199°
2026-04-30 20:41 49.16576 44.92284 38157 ft 438 kts 199°
2026-04-30 20:41 49.10696 44.89792 38155 ft 438 kts 199°
2026-04-30 20:42 49.04816 44.87305 38159 ft 438 kts 199°
2026-04-30 20:43 48.96008 44.83592 38158 ft 438 kts 199°
2026-04-30 20:43 48.90134 44.81119 38158 ft 438 kts 199°
2026-04-30 20:44 48.81332 44.77362 38159 ft 437 kts 201°
2026-04-30 20:45 48.69817 44.71490 38153 ft 437 kts 202°
2026-04-30 20:45 48.64043 44.68619 38154 ft 437 kts 202°
2026-04-30 20:46 48.52494 44.62931 38156 ft 436 kts 202°
2026-04-30 20:47 48.43872 44.58700 38151 ft 436 kts 202°
2026-04-30 20:48 48.35224 44.54473 38152 ft 435 kts 202°
2026-04-30 20:48 48.29461 44.51662 38156 ft 435 kts 202°
2026-04-30 20:49 48.23725 44.48875 38144 ft 430 kts 202°
2026-04-30 20:50 48.15266 44.44771 38153 ft 423 kts 202°
2026-04-30 20:50 48.09686 44.42069 38155 ft 420 kts 202°
2026-04-30 20:51 48.04123 44.39382 38158 ft 419 kts 202°
2026-04-30 20:51 47.95837 44.35391 38157 ft 420 kts 202°
2026-04-30 20:52 47.90208 44.32908 38158 ft 424 kts 199°
2026-04-30 20:53 47.81541 44.29837 38171 ft 428 kts 198°
2026-04-30 20:53 47.75762 44.27804 38168 ft 430 kts 198°
2026-04-30 20:54 47.67002 44.24673 38171 ft 433 kts 199°
2026-04-30 20:55 47.58210 44.21532 38166 ft 433 kts 199°
2026-04-30 20:55 47.52360 44.19446 38172 ft 432 kts 199°
2026-04-30 20:56 47.43613 44.16334 38173 ft 430 kts 199°
2026-04-30 20:57 47.34900 44.13247 38173 ft 428 kts 199°
2026-04-30 20:57 47.29117 44.11205 38175 ft 426 kts 199°
2026-04-30 20:58 47.20490 44.08165 38174 ft 424 kts 199°
2026-04-30 20:58 47.14755 44.06149 38172 ft 423 kts 199°
2026-04-30 20:59 47.06161 44.03136 38179 ft 423 kts 199°
2026-04-30 21:00 46.94755 43.99163 38175 ft 423 kts 199°
2026-04-30 21:01 46.86155 43.96208 38181 ft 423 kts 199°
2026-04-30 21:02 46.78506 43.93579 38188 ft 425 kts 199°
2026-04-30 21:02 46.72743 43.91604 38187 ft 426 kts 199°
2026-04-30 21:03 46.66971 43.89631 38185 ft 426 kts 199°
2026-04-30 21:03 46.61202 43.87663 38179 ft 426 kts 199°
2026-04-30 21:04 46.55434 43.85697 38187 ft 426 kts 199°
2026-04-30 21:04 46.46781 43.82763 38183 ft 425 kts 199°
2026-04-30 21:05 46.41011 43.80819 38189 ft 425 kts 199°
2026-04-30 21:05 46.35257 43.78871 38187 ft 425 kts 199°
2026-04-30 21:06 46.29540 43.76945 38184 ft 424 kts 199°
2026-04-30 21:06 46.23793 43.75016 38182 ft 423 kts 199°
2026-04-30 21:07 46.18057 43.73097 38187 ft 423 kts 199°
2026-04-30 21:07 46.12338 43.71181 38174 ft 422 kts 199°
2026-04-30 21:08 46.06681 43.69300 38161 ft 405 kts 199°
2026-04-30 21:08 46.03990 43.68409 38167 ft 389 kts 199°
2026-04-30 21:08 46.01388 43.67545 38166 ft 380 kts 200°
2026-04-30 21:09 45.96239 43.65937 38174 ft 379 kts 198°
2026-04-30 21:09 45.91049 43.64495 38183 ft 380 kts 198°
2026-04-30 21:10 45.85841 43.63054 38187 ft 381 kts 198°
2026-04-30 21:10 45.80623 43.61591 38179 ft 383 kts 198°
2026-04-30 21:11 45.75396 43.60115 38177 ft 384 kts 198°
2026-04-30 21:11 45.70148 43.58636 38179 ft 386 kts 198°
2026-04-30 21:12 45.64871 43.57159 38177 ft 387 kts 198°
2026-04-30 21:12 45.59573 43.55672 38172 ft 389 kts 198°
2026-04-30 21:13 45.54252 43.54178 38170 ft 390 kts 198°
2026-04-30 21:13 45.48931 43.52698 38166 ft 389 kts 198°
2026-04-30 21:14 45.43624 43.51218 38167 ft 388 kts 198°
2026-04-30 21:14 45.38327 43.49753 38168 ft 387 kts 198°
2026-04-30 21:15 45.33076 43.48298 38165 ft 386 kts 198°
2026-04-30 21:15 45.27815 43.46844 38161 ft 384 kts 198°
2026-04-30 21:16 45.22569 43.45402 38159 ft 384 kts 198°
2026-04-30 21:16 45.17328 43.43956 38158 ft 384 kts 198°
2026-04-30 21:17 45.12089 43.42517 38154 ft 383 kts 198°
2026-04-30 21:17 45.06807 43.41336 38149 ft 389 kts 190°
2026-04-30 21:18 45.01386 43.41020 38159 ft 390 kts 190°
2026-04-30 21:18 44.95948 43.40706 38154 ft 390 kts 190°
2026-04-30 21:19 44.90512 43.40371 38158 ft 391 kts 190°
2026-04-30 21:19 44.85068 43.40024 38157 ft 392 kts 190°
2026-04-30 21:20 44.79623 43.39676 38160 ft 392 kts 190°
2026-04-30 21:20 44.74195 43.39328 38154 ft 393 kts 190°
2026-04-30 21:21 44.68727 43.38979 38155 ft 393 kts 190°
2026-04-30 21:22 44.60520 43.38457 38153 ft 394 kts 190°
2026-04-30 21:23 44.49550 43.37764 38156 ft 394 kts 190°
2026-04-30 21:23 44.41363 43.37274 38155 ft 394 kts 190°
2026-04-30 21:24 44.35880 43.36945 38163 ft 394 kts 190°
2026-04-30 21:24 44.30407 43.36616 38159 ft 394 kts 190°
2026-04-30 21:25 44.22204 43.36105 38195 ft 390 kts 191°
2026-04-30 21:26 44.14022 43.35603 38163 ft 392 kts 190°
2026-04-30 21:27 44.05869 43.35147 38159 ft 395 kts 190°
2026-04-30 21:27 44.00323 43.34816 38159 ft 403 kts 190°
2026-04-30 21:28 43.91774 43.34305 38152 ft 416 kts 189°
2026-04-30 21:29 43.82967 43.33787 38144 ft 428 kts 189°
2026-04-30 21:30 43.67898 43.32906 38113 ft 436 kts 189°
2026-04-30 21:31 43.52768 43.32026 38106 ft 434 kts 189°
2026-04-30 21:32 43.43782 43.31498 38115 ft 432 kts 189°
2026-04-30 21:32 43.37777 43.31150 38101 ft 430 kts 189°
2026-04-30 21:33 43.28824 43.30632 38111 ft 428 kts 189°
2026-04-30 21:34 43.22879 43.30289 38108 ft 427 kts 189°
2026-04-30 21:34 43.13993 43.29773 38111 ft 425 kts 189°
2026-04-30 21:35 43.08076 43.29433 38127 ft 427 kts 189°
2026-04-30 21:35 43.02132 43.29092 38117 ft 427 kts 189°
2026-04-30 21:36 42.96206 43.28759 38126 ft 426 kts 187°
2026-04-30 21:37 42.87359 43.31545 38130 ft 452 kts 160°
2026-04-30 21:37 42.84565 43.33523 38130 ft 454 kts 158°
2026-04-30 21:37 42.78989 43.37616 38123 ft 456 kts 158°
2026-04-30 21:38 42.73394 43.41702 38034 ft 459 kts 158°
2026-04-30 21:38 42.70559 43.43747 37478 ft 463 kts 158°
2026-04-30 21:38 42.67725 43.45775 36920 ft 459 kts 159°
2026-04-30 21:39 42.64904 43.47788 36342 ft 457 kts 159°
2026-04-30 21:39 42.62086 43.49799 35681 ft 458 kts 159°
2026-04-30 21:39 42.59261 43.51812 35024 ft 459 kts 159°
2026-04-30 21:39 42.56460 43.53805 34318 ft 461 kts 159°
2026-04-30 21:40 42.53622 43.55810 33623 ft 459 kts 159°
2026-04-30 21:40 42.50783 43.57821 32877 ft 462 kts 159°
2026-04-30 21:40 42.47928 43.59846 32137 ft 464 kts 158°
2026-04-30 21:40 42.45059 43.61882 31372 ft 464 kts 158°
2026-04-30 21:41 42.39749 43.65647 30081 ft 460 kts 158°
2026-04-30 21:41 42.36916 43.67652 29499 ft 457 kts 158°
2026-04-30 21:41 42.34109 43.69635 28912 ft 453 kts 158°
2026-04-30 21:42 42.31361 43.71565 28350 ft 448 kts 158°
2026-04-30 21:42 42.28601 43.73508 27768 ft 445 kts 158°
2026-04-30 21:42 42.25870 43.75434 27222 ft 441 kts 158°
2026-04-30 21:42 42.23160 43.77342 26665 ft 437 kts 158°
2026-04-30 21:43 42.20472 43.79231 26114 ft 435 kts 158°
2026-04-30 21:43 42.17796 43.81108 25552 ft 432 kts 158°
2026-04-30 21:43 42.15133 43.82973 24981 ft 429 kts 158°
2026-04-30 21:43 42.12499 43.84816 24441 ft 425 kts 158°
2026-04-30 21:44 42.09883 43.86646 23885 ft 421 kts 158°
2026-04-30 21:44 42.07296 43.88455 23346 ft 417 kts 158°
2026-04-30 21:44 42.04725 43.90250 22803 ft 414 kts 158°
2026-04-30 21:44 42.02207 43.92006 22274 ft 411 kts 158°
2026-04-30 21:45 41.99678 43.93768 21732 ft 408 kts 158°
2026-04-30 21:45 41.97167 43.95517 21195 ft 405 kts 158°
2026-04-30 21:45 41.94674 43.97250 20666 ft 402 kts 158°
2026-04-30 21:45 41.92193 43.98974 20138 ft 399 kts 158°
2026-04-30 21:46 41.89739 44.00678 19626 ft 396 kts 158°
2026-04-30 21:46 41.87299 44.02373 19096 ft 394 kts 158°
2026-04-30 21:46 41.84875 44.04050 18568 ft 390 kts 158°
2026-04-30 21:46 41.82469 44.05717 17951 ft 389 kts 158°
2026-04-30 21:47 41.80057 44.07387 17281 ft 389 kts 158°
2026-04-30 21:47 41.77672 44.09037 16746 ft 384 kts 158°
2026-04-30 21:47 41.75310 44.10673 16237 ft 380 kts 158°
2026-04-30 21:47 41.72978 44.12271 15814 ft 375 kts 157°
2026-04-30 21:48 41.70673 44.13863 15356 ft 371 kts 157°
2026-04-30 21:48 41.68389 44.15441 14887 ft 368 kts 157°
2026-04-30 21:48 41.66226 44.17258 14400 ft 371 kts 141°
2026-04-30 21:48 41.64680 44.20020 13929 ft 375 kts 117°
2026-04-30 21:49 41.63985 44.23376 13437 ft 377 kts 95°
2026-04-30 21:49 41.64229 44.26844 12970 ft 374 kts 73°
2026-04-30 21:49 41.65359 44.29924 12365 ft 370 kts 52°
2026-04-30 21:49 41.67170 44.32302 11866 ft 364 kts 33°
2026-04-30 21:50 41.69249 44.34197 11386 ft 360 kts 32°
2026-04-30 21:50 41.71307 44.36003 10919 ft 357 kts 32°
2026-04-30 21:50 41.73352 44.37806 10740 ft 346 kts 32°
2026-04-30 21:50 41.75323 44.39564 10566 ft 335 kts 33°
2026-04-30 21:51 41.77228 44.41281 10433 ft 324 kts 33°
2026-04-30 21:51 41.79065 44.42948 10281 ft 314 kts 33°
2026-04-30 21:51 41.80828 44.44549 10135 ft 297 kts 33°
2026-04-30 21:51 41.82488 44.46059 10029 ft 282 kts 33°
2026-04-30 21:52 41.84063 44.47570 9840 ft 277 kts 41°
2026-04-30 21:52 41.85428 44.49413 9590 ft 279 kts 47°
2026-04-30 21:52 41.86733 44.51332 9310 ft 279 kts 48°
2026-04-30 21:52 41.88060 44.53252 9042 ft 281 kts 47°
2026-04-30 21:53 41.89403 44.55158 8757 ft 281 kts 47°
2026-04-30 21:53 41.90739 44.57037 8455 ft 277 kts 47°
2026-04-30 21:53 41.91759 44.59135 8236 ft 261 kts 74°
2026-04-30 21:53 41.91896 44.61429 8116 ft 238 kts 100°
2026-04-30 21:54 41.91421 44.63460 7988 ft 220 kts 118°
2026-04-30 21:54 41.90567 44.65084 7621 ft 214 kts 134°
2026-04-30 21:54 41.89518 44.66461 7314 ft 207 kts 136°
2026-04-30 21:54 41.88489 44.67759 7050 ft 200 kts 137°
2026-04-30 21:55 41.87477 44.69030 6850 ft 199 kts 137°
2026-04-30 21:55 41.86488 44.70293 6645 ft 198 kts 134°
2026-04-30 21:55 41.85542 44.71630 6447 ft 194 kts 133°
2026-04-30 21:55 41.84636 44.72922 6237 ft 186 kts 134°
2026-04-30 21:56 41.83732 44.74122 6043 ft 180 kts 136°
2026-04-30 21:56 41.82830 44.75273 5908 ft 178 kts 137°
2026-04-30 21:56 41.81957 44.76368 5875 ft 169 kts 137°
2026-04-30 21:56 41.81080 44.77462 5617 ft 172 kts 137°
2026-04-30 21:57 41.80221 44.78532 5372 ft 166 kts 137°
2026-04-30 21:57 41.79407 44.79546 5116 ft 154 kts 137°
2026-04-30 21:57 41.78645 44.80494 4876 ft 145 kts 137°
2026-04-30 21:57 41.77913 44.81406 4667 ft 144 kts 137°
2026-04-30 21:58 41.77176 44.82324 4445 ft 145 kts 137°
2026-04-30 21:58 41.76437 44.83246 4220 ft 145 kts 137°
2026-04-30 21:58 41.75698 44.84166 3990 ft 145 kts 137°
2026-04-30 21:58 41.74963 44.85082 3776 ft 144 kts 137°
2026-04-30 21:59 41.74231 44.85992 3549 ft 143 kts 137°
2026-04-30 21:59 41.73501 44.86904 3327 ft 143 kts 137°
2026-04-30 21:59 41.72774 44.87808 3108 ft 142 kts 136°
2026-04-30 22:00 41.71376 44.89550 2681 ft 138 kts 135°
2026-04-30 22:00 41.69958 44.91301 2270 ft 139 kts 135°
2026-04-30 22:00 41.69255 44.92191 2046 ft 139 kts 134°
2026-04-30 22:01 41.68552 44.93064 1805 ft 138 kts 135°
2026-04-30 22:01 41.67853 44.93940 1609 ft 137 kts 135°
2026-04-30 22:01 41.67182 44.94791 1525 ft 123 kts 136°
2026-04-30 22:01 41.66732 44.95350 1522 ft 89 kts 137°